Metcalfe, MS

8:05 PM CDT on September 25, 2016 (GMT -0500)
Mid Delta Regional

Weather History for KGLH - November, 2010

Change the Weather History Date:

Monday, November 29, 2010

  Actual Average Record
Temperature  
Mean Temperature 57 °F 49 °F  
Max Temperature 65 °F 59 °F 81 °F (1960)
Min Temperature 48 °F 39 °F 17 °F (1976)
Degree Days  
Heating Degree Days 8 16  
Month to date heating degree days 313 333  
Since 1 July heating degree days 388 447  
Cooling Degree Days 0 0  
Month to date cooling degree days 13 9  
Year to date cooling degree days 2673 2183  
Growing Degree Days 6 (Base 50)    
Moisture  
Dew Point 56 °F    
Average Humidity 81    
Maximum Humidity 100    
Minimum Humidity 61    
Precipitation  
Precipitation 0.75 in 0.24 in 2.27 in (2001)
Month to date precipitation 4.50 4.82  
Year to date precipitation 28.10 46.78  
Sea Level Pressure  
Sea Level Pressure 29.81 in    
Wind  
Wind Speed 13 mph (South)    
Max Wind Speed 24 mph    
Max Gust Speed 32 mph    
Visibility 8 miles    
Events Rain , Thunderstorm    
T = Trace of Precipitation, MM = Missing Value Source: NWS Daily Summary

Daily Weather History Graph

Daily Weather History Graph

Search for Another Location

Airport or City:

Trip Planner

Search our weather history database for the weather conditions in past years. The results will help you decide how hot, cold, wet, or windy it might be!

Date:

Astronomy

Nov. 29, 2010 Rise Set
Actual Time 6:48 AM CST 4:56 PM CST
Civil Twilight 6:21 AM CST 5:23 PM CST
Nautical Twilight 5:50 AM CST 5:53 PM CST
Astronomical Twilight 5:20 AM CST 6:23 PM CST
Moon 12:13 AM CST (11/29) 12:41 PM CST (11/29)
Length of Visible Light 11h 02m
Length of Day
10h 07m
Last Quarter, 40% of the Moon is Illuminated
Nov 29
Last Quarter
Dec 5
New
Dec 13
First Quarter
Dec 21
Full
Dec 27
Last Quarter

Hourly Weather History & Observations

Time (CST) Temp. Dew Point Humidity Pressure Visibility Wind Dir Wind Speed Gust Speed Precip Events Conditions
12:53 AM 48.9 °F 37.0 °F 64% 30.03 in 10.0 mi SE 10.4 mph - N/A   Overcast
1:53 AM 48.9 °F 37.9 °F 66% 30.02 in 10.0 mi SE 12.7 mph - N/A   Overcast
2:53 AM 48.9 °F 37.9 °F 66% 29.99 in 10.0 mi SE 12.7 mph - N/A   Overcast
3:53 AM 50.0 °F 39.0 °F 66% 29.98 in 10.0 mi SE 12.7 mph - N/A   Overcast
4:53 AM 50.0 °F 39.0 °F 66% 29.98 in 10.0 mi SE 11.5 mph - N/A   Overcast
5:53 AM 50.0 °F 39.9 °F 68% 29.96 in 10.0 mi SE 11.5 mph - N/A   Overcast
6:53 AM 51.8 °F 41.0 °F 67% 29.95 in 10.0 mi SE 10.4 mph - N/A   Overcast
7:53 AM 52.0 °F 42.1 °F 69% 29.98 in 10.0 mi SE 8.1 mph - N/A   Mostly Cloudy
8:53 AM 55.9 °F 45.0 °F 67% 29.97 in 10.0 mi SE 15.0 mph 21.9 mph N/A   Mostly Cloudy
9:53 AM 60.1 °F 48.9 °F 67% 29.94 in 10.0 mi SSE 16.1 mph - 0.00 in Rain Light Rain
10:53 AM 61.0 °F 54.0 °F 78% 29.90 in 5.0 mi SSE 16.1 mph 26.5 mph 0.01 in Rain Light Rain
11:01 AM 62.6 °F 55.4 °F 77% 29.87 in 10.0 mi SSE 19.6 mph 28.8 mph 0.00 in   Mostly Cloudy
11:53 AM 62.1 °F 55.0 °F 78% 29.87 in 10.0 mi SSE 19.6 mph 25.3 mph 0.00 in   Overcast
12:53 PM 63.0 °F 55.9 °F 78% 29.83 in 10.0 mi SSE 18.4 mph 27.6 mph N/A   Overcast
1:53 PM 62.6 °F 57.2 °F 82% 29.78 in 10.0 mi SSE 16.1 mph 23.0 mph N/A   Overcast
2:40 PM 62.6 °F 59.0 °F 88% 29.75 in 10.0 mi SSE 20.7 mph 28.8 mph 0.00 in   Overcast
2:53 PM 63.0 °F 59.0 °F 87% 29.76 in 10.0 mi SE 16.1 mph 26.5 mph 0.00 in   Overcast
3:53 PM 63.0 °F 60.1 °F 90% 29.74 in 9.0 mi SSE 15.0 mph - N/A   Overcast
4:53 PM 63.0 °F 61.0 °F 93% 29.72 in 5.0 mi SSE 15.0 mph 23.0 mph 0.02 in Rain Rain
5:08 PM 62.6 °F 62.6 °F 100% 29.69 in 3.0 mi SSE 15.0 mph 25.3 mph 0.04 in Rain , Thunderstorm Heavy Thunderstorms and Rain
5:27 PM 62.6 °F 62.6 °F 100% 29.67 in 5.0 mi SSE 20.7 mph 27.6 mph 0.06 in Rain , Thunderstorm Rain
5:35 PM 62.6 °F 62.6 °F 100% 29.67 in 2.5 mi SE 20.7 mph 27.6 mph 0.11 in Rain , Thunderstorm Heavy Rain
5:43 PM 62.6 °F 62.6 °F 100% 29.66 in 3.0 mi SE 18.4 mph 27.6 mph 0.14 in Rain Rain
5:53 PM 64.0 °F 62.1 °F 93% 29.68 in 5.0 mi SE 18.4 mph 26.5 mph 0.14 in Rain Light Rain
6:08 PM 64.4 °F 62.6 °F 94% 29.64 in 1.8 mi SSE 11.5 mph 23.0 mph 0.13 in Rain Heavy Rain
6:30 PM 64.4 °F 62.6 °F 94% 29.68 in 1.8 mi WSW 19.6 mph 26.5 mph 0.35 in Rain Heavy Rain
6:39 PM 64.4 °F 64.4 °F 100% 29.69 in 3.0 mi SSW 19.6 mph - 0.39 in Rain Light Rain
6:46 PM 64.4 °F 64.4 °F 100% 29.70 in 10.0 mi WSW 13.8 mph - 0.39 in   Overcast
6:53 PM 64.9 °F 64.0 °F 97% 29.74 in 8.0 mi WSW 15.0 mph - 0.39 in Rain Light Rain
7:00 PM 64.4 °F 62.6 °F 94% 29.72 in 8.0 mi West 12.7 mph - 0.00 in Rain Light Rain
7:18 PM 64.4 °F 62.6 °F 94% 29.72 in 6.0 mi West 8.1 mph - 0.01 in Rain Rain
7:37 PM 62.6 °F 62.6 °F 100% 29.73 in 2.5 mi WNW 8.1 mph - 0.07 in Rain Heavy Rain
7:44 PM 62.6 °F 62.6 °F 100% 29.74 in 4.0 mi WNW 12.7 mph - 0.09 in Rain Rain
7:53 PM 63.0 °F 62.1 °F 97% 29.75 in 2.5 mi NW 10.4 mph - 0.14 in Rain Heavy Rain
8:03 PM 62.6 °F 62.6 °F 100% 29.74 in 5.0 mi NW 6.9 mph - 0.01 in Rain Light Rain
8:10 PM 62.6 °F 62.6 °F 100% 29.73 in 10.0 mi NW 8.1 mph - 0.01 in Rain Light Rain
8:53 PM 62.1 °F 60.1 °F 93% 29.82 in 10.0 mi West 6.9 mph - 0.01 in   Overcast
9:53 PM 60.1 °F 60.1 °F 100% 29.83 in 10.0 mi West 9.2 mph - 0.00 in   Mostly Cloudy
10:53 PM 59.0 °F 55.9 °F 90% 29.83 in 10.0 mi WNW 3.5 mph - 0.02 in   Overcast
11:53 PM 57.9 °F 55.9 °F 93% 29.85 in 9.0 mi SSE 6.9 mph - 0.01 in Rain Light Rain